Hourly Weather Barsuki (Borkovo)

Today, 19 June, Saturday

Time Temperature Precipitation Wind Pressure Humidity
00:00 +17°C° 0 mm 2 mps 755 mmHg 90%
01:00 +17°C° 0 mm 2 mps 755 mmHg 91%
02:00 +16°C° 0 mm 2 mps 755 mmHg 93%
03:00 +16°C° 0 mm 2 mps 755 mmHg 92%
04:00 +17°C° 0 mm 2 mps 755 mmHg 91%
05:00 +18°C° 0 mm 1 mps 755 mmHg 90%
06:00 +19°C° 0 mm 2 mps 755 mmHg 82%
07:00 +21°C° 0 mm 2 mps 755 mmHg 75%
08:00 +24°C° 0 mm 2 mps 755 mmHg 67%
09:00 +25°C° 0 mm 2 mps 755 mmHg 62%
10:00 +26°C° 0 mm 3 mps 755 mmHg 57%
11:00 +28°C° 0 mm 3 mps 754 mmHg 52%
12:00 +28°C° 0 mm 3 mps 754 mmHg 50%
13:00 +29°C° 0 mm 3 mps 754 mmHg 48%
14:00 +29°C° 0 mm 3 mps 754 mmHg 47%
15:00 +29°C° 0 mm 3 mps 753 mmHg 48%
16:00 +29°C° 0 mm 3 mps 753 mmHg 50%
17:00 +29°C° 0 mm 3 mps 753 mmHg 52%
18:00 +27°C° 0 mm 3 mps 753 mmHg 60%
19:00 +25°C° 0 mm 2 mps 753 mmHg 69%
20:00 +23°C° 0 mm 2 mps 753 mmHg 77%
21:00 +21°C° 0 mm 2 mps 753 mmHg 82%
22:00 +20°C° 0 mm 2 mps 753 mmHg 86%
23:00 +19°C° 0 mm 2 mps 753 mmHg 91%

Tomorrow, 20 June, Sunday

Time Temperature Precipitation Wind Pressure Humidity
00:00 +18°C° 0 mm 2 mps 753 mmHg 92%
01:00 +18°C° 0 mm 2 mps 753 mmHg 94%
02:00 +18°C° 0 mm 2 mps 753 mmHg 95%
03:00 +18°C° 0 mm 2 mps 753 mmHg 94%
04:00 +18°C° 0 mm 2 mps 753 mmHg 93%
05:00 +20°C° 0 mm 1 mps 753 mmHg 92%
06:00 +21°C° 0 mm 2 mps 753 mmHg 84%
07:00 +24°C° 0 mm 2 mps 753 mmHg 77%
08:00 +26°C° 0 mm 3 mps 753 mmHg 70%
09:00 +27°C° 0.1 mm 3 mps 753 mmHg 66%
10:00 +28°C° 0.1 mm 3 mps 753 mmHg 62%
11:00 +29°C° 0.1 mm 3 mps 753 mmHg 58%
12:00 +30°C° 0.3 mm 3 mps 752 mmHg 56%
13:00 +30°C° 0.3 mm 3 mps 752 mmHg 55%
14:00 +30°C° 0.3 mm 3 mps 752 mmHg 54%
15:00 +30°C° 0.2 mm 3 mps 751 mmHg 55%
16:00 +30°C° 0.2 mm 3 mps 751 mmHg 55%
17:00 +30°C° 0.2 mm 3 mps 751 mmHg 56%
18:00 +28°C° 0.1 mm 3 mps 751 mmHg 64%
19:00 +27°C° 0.1 mm 3 mps 751 mmHg 72%
20:00 +25°C° 0.1 mm 2 mps 751 mmHg 81%
21:00 +24°C° 0 mm 2 mps 751 mmHg 85%
22:00 +21°C° 0 mm 2 mps 751 mmHg 89%
23:00 +20°C° 0 mm 2 mps 751 mmHg 93%

Day after tomorrow, 21 June, Monday

Time Temperature Precipitation Wind Pressure Humidity
00:00 +20°C° 0 mm 2 mps 751 mmHg 94%
01:00 +19°C° 0 mm 2 mps 751 mmHg 94%
02:00 +18°C° 0 mm 2 mps 751 mmHg 95%
03:00 +19°C° 0 mm 2 mps 751 mmHg 94%
04:00 +19°C° 0 mm 2 mps 751 mmHg 93%
05:00 +19°C° 0 mm 2 mps 751 mmHg 92%
06:00 +21°C° 0 mm 2 mps 751 mmHg 84%
07:00 +24°C° 0 mm 2 mps 751 mmHg 75%
08:00 +26°C° 0 mm 3 mps 751 mmHg 67%
09:00 +27°C° 0 mm 3 mps 751 mmHg 62%
10:00 +28°C° 0 mm 4 mps 751 mmHg 57%
11:00 +29°C° 0 mm 4 mps 750 mmHg 51%
12:00 +29°C° 0 mm 4 mps 750 mmHg 47%
13:00 +30°C° 0 mm 4 mps 750 mmHg 43%
14:00 +32°C° 0 mm 4 mps 750 mmHg 39%
15:00 +32°C° 0 mm 4 mps 749 mmHg 42%
16:00 +30°C° 0 mm 4 mps 749 mmHg 45%
17:00 +30°C° 0 mm 4 mps 749 mmHg 48%
18:00 +28°C° 0 mm 3 mps 749 mmHg 56%
19:00 +26°C° 0 mm 3 mps 749 mmHg 65%
20:00 +25°C° 0 mm 2 mps 749 mmHg 73%
21:00 +24°C° 0 mm 3 mps 749 mmHg 77%
22:00 +22°C° 0 mm 3 mps 749 mmHg 81%
23:00 +22°C° 0 mm 3 mps 749 mmHg 85%

22 June, Tuesday

Time Temperature Precipitation Wind Pressure Humidity
00:00 +21°C° 0 mm 3 mps 749 mmHg 88%
01:00 +20°C° 0 mm 3 mps 749 mmHg 92%
02:00 +20°C° 0 mm 2 mps 749 mmHg 96%
03:00 +20°C° 0 mm 2 mps 749 mmHg 95%
04:00 +20°C° 0 mm 3 mps 749 mmHg 94%
05:00 +20°C° 0 mm 3 mps 749 mmHg 93%
06:00 +22°C° 0 mm 3 mps 749 mmHg 86%
07:00 +23°C° 0 mm 4 mps 749 mmHg 79%
08:00 +26°C° 0 mm 4 mps 749 mmHg 72%
09:00 +27°C° 0 mm 4 mps 749 mmHg 67%
10:00 +29°C° 0 mm 4 mps 749 mmHg 62%
11:00 +30°C° 0 mm 4 mps 749 mmHg 58%
12:00 +29°C° 0.6 mm 4 mps 749 mmHg 63%
13:00 +28°C° 0.6 mm 4 mps 749 mmHg 69%
14:00 +28°C° 0.6 mm 3 mps 749 mmHg 74%
15:00 +28°C° 0.4 mm 3 mps 749 mmHg 75%
16:00 +28°C° 0.4 mm 3 mps 749 mmHg 75%
17:00 +28°C° 0.4 mm 2 mps 749 mmHg 75%
18:00 +27°C° 0.3 mm 2 mps 749 mmHg 79%
19:00 +26°C° 0.3 mm 2 mps 750 mmHg 82%
20:00 +25°C° 0.3 mm 2 mps 750 mmHg 86%
21:00 +24°C° 0.1 mm 2 mps 750 mmHg 88%
22:00 +23°C° 0.1 mm 2 mps 750 mmHg 91%
23:00 +23°C° 0.1 mm 2 mps 750 mmHg 93%

23 June, Wednesday

Time Temperature Precipitation Wind Pressure Humidity
00:00 +21°C° 0 mm 2 mps 750 mmHg 94%
01:00 +21°C° 0 mm 2 mps 750 mmHg 95%
02:00 +21°C° 0 mm 2 mps 750 mmHg 96%
03:00 +21°C° 0 mm 2 mps 750 mmHg 95%
04:00 +21°C° 0 mm 2 mps 751 mmHg 95%
05:00 +21°C° 0 mm 2 mps 751 mmHg 95%
06:00 +23°C° 0 mm 2 mps 751 mmHg 87%
07:00 +25°C° 0 mm 2 mps 751 mmHg 80%
08:00 +26°C° 0 mm 3 mps 751 mmHg 73%
09:00 +28°C° 0 mm 3 mps 751 mmHg 66%
10:00 +29°C° 0 mm 4 mps 751 mmHg 59%
11:00 +32°C° 0 mm 4 mps 752 mmHg 53%
12:00 +32°C° 0 mm 4 mps 751 mmHg 50%
13:00 +33°C° 0 mm 4 mps 751 mmHg 48%
14:00 +34°C° 0 mm 4 mps 751 mmHg 45%
15:00 +34°C° 0 mm 4 mps 751 mmHg 47%
16:00 +33°C° 0 mm 4 mps 751 mmHg 49%
17:00 +33°C° 0 mm 3 mps 751 mmHg 52%
18:00 +31°C° 0.1 mm 3 mps 751 mmHg 60%
19:00 +29°C° 0.1 mm 2 mps 751 mmHg 69%
20:00 +27°C° 0.1 mm 2 mps 751 mmHg 77%
21:00 +26°C° 0.1 mm 2 mps 751 mmHg 81%
22:00 +25°C° 0.1 mm 2 mps 751 mmHg 85%
23:00 +24°C° 0.1 mm 2 mps 751 mmHg 89%

24 June, Thursday

Time Temperature Precipitation Wind Pressure Humidity
00:00 +24°C° 0 mm 2 mps 751 mmHg 90%
01:00 +23°C° 0 mm 2 mps 751 mmHg 92%
02:00 +23°C° 0 mm 2 mps 751 mmHg 93%
03:00 +23°C° 0 mm 2 mps 751 mmHg 93%
04:00 +23°C° 0 mm 2 mps 751 mmHg 92%
05:00 +23°C° 0 mm 2 mps 751 mmHg 92%
06:00 +24°C° 0 mm 2 mps 752 mmHg 84%
07:00 +26°C° 0 mm 2 mps 752 mmHg 76%
08:00 +28°C° 0 mm 3 mps 752 mmHg 69%
09:00 +29°C° 0 mm 3 mps 752 mmHg 61%
10:00 +30°C° 0 mm 4 mps 752 mmHg 54%
11:00 +33°C° 0 mm 4 mps 752 mmHg 47%
12:00 +33°C° 0 mm 5 mps 751 mmHg 46%
13:00 +34°C° 0 mm 5 mps 751 mmHg 45%
14:00 +34°C° 0 mm 5 mps 751 mmHg 44%
15:00 +34°C° 0 mm 5 mps 751 mmHg 47%
16:00 +34°C° 0 mm 4 mps 751 mmHg 50%
17:00 +33°C° 0 mm 4 mps 751 mmHg 53%
18:00 +31°C° 0.2 mm 3 mps 750 mmHg 61%
19:00 +29°C° 0.2 mm 3 mps 750 mmHg 69%
20:00 +27°C° 0.2 mm 3 mps 750 mmHg 78%
21:00 +25°C° 0.6 mm 2 mps 750 mmHg 83%
22:00 +23°C° 0.6 mm 2 mps 750 mmHg 88%
23:00 +20°C° 0.6 mm 2 mps 751 mmHg 93%
Show more